EW8655 Weather Reports


time (UTC)temp
F
wind
direction
speed
knots
gust
knots
rain 1hr
in
rain 24hr
in
rain mn
in
humidity
%
barometer
mb
20260507122505 44 295 4.3 7.8 0.00 0.00 0.00 72 1012.5
20260507122006 44 327 4.3 7.8 0.00 0.00 0.00 73 1013.1
20260507121506 44 300 5.2 6.1 0.00 0.00 0.00 73 1012.6
20260507120506 44 314 4.3 7.8 0.00 0.00 0.00 75 1013.1
20260507120006 44 314 4.3 6.1 0.00 0.00 0.00 77 1013.1
20260507115505 44 347 1.7 6.1 0.00 0.00 0.00 78 1012.1
20260507114006 44 295 4.3 6.1 0.00 0.00 0.00 85 1012.1
20260507113506 43 310 3.5 4.3 0.00 0.00 0.00 86 1012.1
20260507112505 43 280 1.7 4.3 0.00 0.00 0.00 87 1012.1
20260507112006 43 302 1.7 4.3 0.00 0.00 0.00 88 1012.1
20260507111506 43 272 2.6 4.3 0.00 0.00 0.00 88 1012.1
20260507111007 42 253 4.3 4.3 0.00 0.00 0.00 89 1012.1
20260507110505 42 271 4.3 6.1 0.00 0.00 0.00 89 1012.1
20260507110006 42 262 4.3 6.1 0.00 0.00 0.00 89 1012.1
20260507105006 42 265 5.2 6.1 0.00 0.00 0.00 89 1012.1
20260507104507 42 269 5.2 6.1 0.00 0.00 0.00 89 1012.1
20260507104008 42 270 4.3 6.1 0.00 0.00 0.00 89 1012.1
20260507103508 42 265 4.3 4.3 0.00 0.00 0.00 89 1012.1
20260507103008 42 266 4.3 4.3 0.00 0.00 0.00 89 1012.1
20260507102508 42 275 4.3 6.1 0.00 0.00 0.00 89 1012.1
20260507102008 42 277 4.3 6.1 0.00 0.00 0.00 89 1012.1
20260507101507 42 267 5.2 6.1 0.00 0.00 0.00 89 1012.1
20260507101008 42 259 6.1 6.1 0.00 0.00 0.00 89 1012.1
20260507100508 42 263 4.3 6.1 0.00 0.00 0.00 89 1012.1
20260507095008 42 257 6.1 6.1 0.00 0.00 0.00 89 1012.1
20260507094507 42 261 4.3 6.1 0.00 0.00 0.00 89 1012.1
20260507093508 42 252 4.3 6.1 0.00 0.00 0.00 89 1012.1
20260507093008 42 245 4.3 6.1 0.00 0.00 0.00 89 1012.1
20260507092008 42 246 4.3 6.1 0.00 0.00 0.00 89 1012.1
20260507091008 42 245 4.3 6.1 0.00 0.00 0.00 89 1012.1
20260507090007 42 260 4.3 4.3 0.00 0.00 0.00 89 1012.1
20260507085508 42 275 1.7 4.3 0.00 0.00 0.00 89 1012.1
20260507085008 42 245 1.7 4.3 0.00 0.00 0.00 89 1012.1
20260507084507 42 268 1.7 4.3 0.00 0.00 0.00 89 1012.1
20260507084008 42 254 4.3 4.3 0.00 0.00 0.00 89 1012.1
20260507083508 42 253 4.3 4.3 0.00 0.00 0.00 89 1012.1
20260507083008 42 254 4.3 4.3 0.00 0.00 0.00 89 1012.1
20260507082507 42 247 4.3 4.3 0.00 0.00 0.00 88 1012.1
20260507082008 42 256 4.3 4.3 0.00 0.00 0.00 87 1012.1
20260507081507 42 241 4.3 4.3 0.00 0.00 0.00 87 1012.1
20260507081008 42 260 4.3 4.3 0.00 0.00 0.00 86 1012.1
20260507080508 42 259 4.3 4.3 0.00 0.00 0.00 86 1012.1
20260507080007 42 255 4.3 4.3 0.00 0.00 0.00 85 1012.1
20260507075507 42 230 4.3 4.3 0.00 0.00 0.00 86 1012.1
20260507075007 43 259 4.3 6.1 0.00 0.00 0.00 86 1012.1
20260507074507 42 248 4.3 6.1 0.00 0.00 0.00 87 1012.1
20260507074007 42 236 4.3 6.1 0.00 0.00 0.00 87 1012.1
20260507073508 42 232 4.3 6.1 0.00 0.00 0.00 87 1012.1
20260507073009 42 253 4.3 6.1 0.00 0.00 0.00 87 1012.1
20260507072008 43 267 4.3 6.1 0.00 0.00 0.00 87 1012.1
20260507071507 43 259 5.2 6.1 0.00 0.00 0.00 87 1012.1
20260507071007 43 264 6.1 6.1 0.00 0.00 0.00 87 1012.1
20260507070508 43 263 6.1 7.8 0.00 0.00 0.00 88 1012.1
20260507070010 43 269 6.1 7.8 0.00 0.00 0.00 88 1012.1
20260507065506 43 261 6.1 7.8 0.00 0.00 0.00 89 1012.1
20260507065008 43 273 6.1 7.8 0.00 0.00 0.00 89 1012.1
20260507064507 43 264 6.1 7.8 0.00 0.00 0.00 89 1012.1
20260507064007 43 266 6.1 7.8 0.00 0.00 0.00 89 1012.1
20260507063507 43 269 6.1 7.8 0.00 0.00 0.00 90 1012.1
20260507063007 43 260 6.1 6.1 0.00 0.00 0.00 90 1012.1
20260507062507 43 255 6.1 6.1 0.00 0.00 0.00 90 1012.1
20260507062008 43 275 6.1 6.1 0.00 0.00 0.00 91 1012.1
20260507061507 44 261 6.1 6.1 0.00 0.00 0.00 91 1012.1
20260507061008 44 263 6.1 7.8 0.00 0.00 0.00 91 1012.1
20260507060007 44 263 6.1 7.8 0.00 0.00 0.00 92 1012.1
20260507055007 44 254 6.1 6.1 0.00 0.00 0.00 92 1012.1
20260507054507 44 266 6.1 7.8 0.00 0.00 0.00 92 1012.1
20260507054008 44 258 6.1 7.8 0.00 0.00 0.00 92 1012.1
20260507053508 44 242 6.1 7.8 0.00 0.00 0.00 92 1012.1
20260507053008 44 239 6.1 7.8 0.00 0.00 0.00 92 1012.1
20260507052507 44 250 6.1 7.8 0.00 0.00 0.00 92 1012.1
20260507052007 44 250 6.1 7.8 0.00 0.00 0.00 92 1012.1
20260507051507 44 253 6.1 7.8 0.00 0.00 0.00 92 1012.1
20260507050507 44 240 7.8 7.8 0.00 0.00 0.00 92 1012.8
20260507045007 44 252 6.1 6.1 0.00 0.00 0.00 92 1012.1
20260507044008 44 262 6.1 6.1 0.00 0.00 0.00 92 1012.1
20260507043508 44 252 6.1 6.1 0.00 0.00 0.00 92 1012.4
20260507043008 44 261 6.1 6.1 0.00 0.00 0.00 92 1012.1
20260507042507 44 269 6.1 6.1 0.00 0.00 0.00 92 1012.1
20260507042007 44 265 4.3 6.1 0.00 0.00 0.00 92 1012.1
20260507041007 44 263 6.1 7.8 0.00 0.00 0.00 93 1012.1
20260507040507 44 265 6.1 7.8 0.00 0.00 0.00 93 1012.1
20260507040007 45 265 6.1 7.8 0.00 0.00 0.00 93 1012.1
20260507035507 45 264 6.1 7.8 0.00 0.00 0.00 94 1012.1
20260507035007 45 271 6.1 7.8 0.00 0.00 0.00 95 1012.1
20260507034506 45 274 6.1 7.8 0.00 0.00 0.00 95 1012.1
20260507034008 45 270 6.1 7.8 0.00 0.00 0.00 96 1012.1
20260507033508 45 253 6.1 7.8 0.00 0.00 0.00 96 1012.1
20260507033007 45 265 7.0 7.8 0.00 0.00 0.00 97 1012.1
20260507032507 45 261 7.8 7.8 0.00 0.00 0.00 97 1012.1
20260507032007 45 264 6.1 7.8 0.00 0.00 0.00 97 1012.1
20260507031507 45 265 7.8 7.8 0.00 0.00 0.00 97 1012.1
20260507031008 45 256 7.8 7.8 0.00 0.00 0.00 98 1012.1
20260507030507 45 270 7.8 7.8 0.00 0.00 0.00 98 1012.1
20260507030006 45 259 7.8 7.8 0.00 0.00 0.00 99 1012.1
20260507025507 45 266 6.1 7.8 0.00 0.00 0.00 99 1012.1
20260507025008 45 269 6.1 7.8 0.00 0.00 0.00 99 1012.1
20260507024507 45 275 6.1 7.8 0.00 0.00 0.00 99 1012.1
20260507024008 45 292 6.1 7.8 0.00 0.00 0.00 99 1012.1
20260507023507 45 275 6.1 7.8 0.00 0.00 0.00 99 1012.1
20260507023007 45 271 6.1 7.8 0.00 0.00 0.00 99 1012.1
20260507022507 45 258 6.1 7.8 0.00 0.00 0.00 99 1012.1
20260507022006 45 262 6.1 7.8 0.00 0.00 0.00 99 1012.1
20260507021507 44 263 6.1 7.8 0.00 0.00 0.00 99 1012.1
20260507021007 44 263 6.1 7.8 0.00 0.00 0.00 99 1012.1
20260507020507 45 250 7.8 7.8 0.00 0.00 0.00 99 1012.1
20260507020006 44 254 7.8 10.4 0.00 0.00 0.00 99 1012.1
20260507015507 44 245 7.8 10.4 0.00 0.00 0.00 99 1012.1
20260507015007 44 258 7.8 10.4 0.00 0.00 0.00 99 1012.1
20260507014507 44 253 7.8 10.4 0.00 0.00 0.00 99 1012.1
20260507013508 44 245 7.8 10.4 0.00 0.00 0.00 99 1012.1
20260507012506 44 233 7.8 7.8 0.00 0.00 0.00 99 1012.1
20260507012008 44 247 7.8 7.8 0.00 0.00 0.00 99 1012.1
20260507011506 44 250 7.8 7.8 0.00 0.00 0.00 99 1012.1
20260507010507 44 242 6.1 7.8 0.00 0.00 0.00 99 1012.1
20260507010006 44 250 6.1 7.8 0.00 0.00 0.00 99 1012.1
20260507005506 44 238 6.1 7.8 0.00 0.00 0.00 99 1012.1
20260507005007 44 260 6.1 7.8 0.00 0.00 0.00 99 1012.1
20260507004506 44 263 6.1 7.8 0.00 0.00 0.00 98 1012.1
20260507004007 44 280 6.1 7.8 0.00 0.00 0.00 98 1012.1
20260507003507 44 266 6.1 7.8 0.00 0.00 0.00 98 1012.1
20260507002507 44 279 5.2 6.1 0.00 0.00 0.00 97 1012.1
20260507002007 44 305 4.3 7.8 0.00 0.00 0.00 97 1012.1
20260507001506 43 292 4.3 7.8 0.00 0.00 0.00 97 1012.0
20260507000507 43 305 3.5 6.1 0.00 0.00 0.00 97 1011.2
20260507000006 43 302 4.3 6.1 0.00 0.00 0.00 97 1011.1
20260506235507 43 303 3.5 6.1 0.00 0.00 0.00 97 1011.1
20260506235007 43 281 4.3 7.8 0.00 0.00 0.00 97 1011.1
20260506234507 43 288 4.3 12.2 0.00 0.00 0.00 97 1011.1
20260506234007 43 303 4.3 12.2 0.00 0.00 0.00 96 1010.1
20260506233506 44 307 4.3 7.8 0.00 0.00 0.00 96 1011.1
20260506233007 44 331 4.3 7.8 0.00 0.00 0.00 96 1010.1
20260506232506 45 287 1.7 6.1 0.00 0.00 0.00 97 1010.6
20260506232007 45 323 0.9 4.3 0.00 0.00 0.00 97 1010.1
20260506231507 45 352 1.7 4.3 0.00 0.00 0.00 97 1010.1
20260506230507 45 20 4.3 4.3 0.00 0.00 0.00 97 1010.1
20260506230007 45 14 1.7 4.3 0.00 0.00 0.00 97 1010.1
20260506225007 46 52 4.3 4.3 0.00 0.00 0.00 97 1010.1
20260506224506 46 46 1.7 4.3 0.00 0.00 0.00 97 1009.1
20260506224007 46 70 1.7 4.3 0.00 0.00 0.00 97 1009.1
20260506223506 46 84 1.7 4.3 0.00 0.00 0.00 97 1010.1
20260506222507 47 90 1.7 4.3 0.00 0.00 0.00 98 1009.1
20260506221506 47 125 1.7 4.3 0.00 0.00 0.00 99 1009.1
20260506221007 46 121 1.7 4.3 0.00 0.00 0.00 99 1009.1
20260506220506 46 115 0.0 4.3 0.00 0.00 0.00 99 1009.1
20260506215507 46 121 1.7 4.3 0.00 0.00 0.00 100 1009.1
20260506215007 46 121 1.7 6.1 0.00 0.00 0.00 100 1009.1
20260506214507 46 127 2.6 6.1 0.00 0.00 0.00 100 1009.1
20260506214007 46 118 4.3 6.1 0.00 0.00 0.00 100 1009.1
20260506213507 46 112 4.3 6.1 0.00 0.00 0.00 100 1009.1
20260506213006 46 103 4.3 6.1 0.00 0.00 0.00 100 1009.1
20260506212506 46 101 5.2 7.8 0.00 0.00 0.00 100 1009.1
20260506212007 45 96 6.1 7.8 0.00 0.00 0.00 100 1009.1
20260506211507 46 94 5.2 7.8 0.00 0.00 0.00 100 1009.1
20260506211007 45 101 6.1 7.8 0.00 0.00 0.00 100 1009.1
20260506210507 46 101 6.1 7.8 0.00 0.00 0.00 100 1009.1
20260506210006 46 101 6.1 7.8 0.00 0.00 0.00 100 1009.1
20260506205506 46 92 4.3 7.8 0.00 0.00 0.00 100 1009.1
20260506205008 46 92 4.3 7.8 0.00 0.00 0.00 100 1009.1
20260506204506 46 69 4.3 7.8 0.00 0.00 0.00 100 1009.1
20260506204007 46 86 4.3 6.1 0.00 0.00 0.00 100 1009.1
20260506203506 46 103 4.3 6.1 0.00 0.00 0.00 100 1009.1
20260506203007 46 87 4.3 6.1 0.00 0.00 0.00 100 1009.1
20260506202507 47 91 1.7 6.1 0.00 0.00 0.00 100 1009.1
20260506202007 47 117 4.3 6.1 0.00 0.00 0.00 100 1009.1
20260506201506 47 100 1.7 4.3 0.00 0.00 0.00 100 1009.1
20260506201007 47 106 1.7 6.1 0.00 0.00 0.00 100 1009.1
20260506200507 47 124 1.7 6.1 0.00 0.00 0.00 100 1009.1
20260506200006 47 105 4.3 6.1 0.00 0.00 0.00 100 1009.1
20260506195506 46 110 4.3 6.1 0.00 0.00 0.00 100 1009.1
20260506195007 46 102 4.3 6.1 0.00 0.00 0.00 100 1009.1
20260506194506 46 82 4.3 6.1 0.00 0.00 0.00 100 1009.1
20260506194006 46 84 4.3 4.3 0.00 0.00 0.00 100 1009.1
20260506193506 45 90 4.3 4.3 0.00 0.00 0.00 100 1009.1
20260506193007 45 89 4.3 4.3 0.00 0.00 0.00 100 1009.1
20260506192506 45 81 1.7 4.3 0.00 0.00 0.00 100 1009.1
20260506192006 45 78 1.7 4.3 0.00 0.00 0.00 100 1009.1
20260506191506 45 102 1.7 4.3 0.00 0.00 0.00 100 1009.1
20260506191006 46 92 1.7 4.3 0.00 0.00 0.00 100 1009.1
20260506190507 46 81 2.6 4.3 0.00 0.00 0.00 100 1009.1
20260506185506 46 69 1.7 4.3 0.00 0.00 0.00 100 1009.1
20260506185006 46 66 1.7 4.3 0.00 0.00 0.00 100 1009.1
20260506184505 46 78 1.7 4.3 0.00 0.00 0.00 100 1009.1
20260506184007 45 51 1.7 4.3 0.00 0.00 0.00 100 1009.1
20260506183006 45 63 1.7 4.3 0.00 0.00 0.00 100 1009.1
20260506182506 45 43 1.7 4.3 0.00 0.00 0.00 100 1009.1
20260506181506 45 29 0.0 0.0 0.00 0.00 0.00 100 1010.1
20260506181006 45 63 0.0 0.0 0.00 0.00 0.00 100 1010.1
20260506180507 45 42 0.0 1.7 0.00 0.00 0.00 100 1010.1
20260506180007 44 22 0.0 4.3 0.00 0.00 0.00 100 1010.1
20260506175506 44 13 0.9 4.3 0.00 0.00 0.00 100 1010.1
20260506175007 44 28 1.7 4.3 0.00 0.00 0.00 100 1010.1
20260506174007 44 31 1.7 4.3 0.00 0.00 0.00 100 1010.1
20260506173507 44 38 1.7 4.3 0.00 0.00 0.00 100 1009.1
20260506173006 44 28 4.3 6.1 0.00 0.00 0.00 100 1009.1
20260506172506 44 9 4.3 6.1 0.00 0.00 0.00 100 1009.1
20260506172006 44 26 4.3 6.1 0.00 0.00 0.00 100 1009.1
20260506171505 44 22 4.3 4.3 0.00 0.00 0.00 100 1009.1
20260506171006 44 32 4.3 4.3 0.00 0.00 0.00 100 1009.1
20260506170507 44 36 4.3 4.3 0.00 0.00 0.00 100 1009.1
20260506170005 44 28 4.3 4.3 0.00 0.00 0.00 100 1009.1
20260506165506 44 43 4.3 4.3 0.00 0.00 0.00 100 1009.1
20260506165007 44 36 4.3 4.3 0.00 0.00 0.00 100 1009.1
20260506164505 44 37 4.3 4.3 0.00 0.00 0.00 100 1009.1
20260506164006 44 40 4.3 4.3 0.00 0.00 0.00 100 1009.1
20260506163006 44 48 4.3 6.1 0.00 0.00 0.00 100 1009.1
20260506162506 44 51 4.3 4.3 0.00 0.00 0.00 100 1009.1
20260506162006 44 47 4.3 4.3 0.00 0.00 0.00 100 1009.1
20260506161505 44 51 4.3 4.3 0.00 0.00 0.00 100 1009.1
20260506161006 44 53 4.3 6.1 0.00 0.00 0.00 100 1009.1
20260506160506 43 59 4.3 6.1 0.00 0.00 0.00 100 1009.1
20260506160006 43 55 4.3 6.1 0.00 0.00 0.00 100 1009.1
20260506155506 43 48 4.3 6.1 0.00 0.00 0.00 100 1009.1
20260506155006 43 49 4.3 6.1 0.00 0.00 0.00 100 1009.1
20260506154506 43 48 4.3 6.1 0.00 0.00 0.00 100 1009.1
20260506154006 43 49 4.3 6.1 0.00 0.00 0.00 100 1009.1
20260506153506 43 58 4.3 6.1 0.00 0.00 0.00 100 1009.1
20260506153006 43 50 6.1 6.1 0.00 0.00 0.00 100 1009.1
20260506152506 43 53 6.1 6.1 0.00 0.00 0.00 100 1009.1
20260506152006 43 60 6.1 6.1 0.00 0.00 0.00 100 1009.1
20260506151006 43 55 4.3 6.1 0.00 0.00 0.00 100 1009.1
20260506150506 43 57 6.1 6.1 0.00 0.00 0.00 100 1009.1
20260506145505 43 50 6.1 6.1 0.00 0.00 0.00 100 1009.1
20260506145006 43 53 6.1 6.1 0.00 0.00 0.00 100 1009.1
20260506144006 43 57 6.1 6.1 0.00 0.00 0.00 100 1009.1
20260506143006 43 52 6.1 6.1 0.00 0.00 0.00 100 1009.1
20260506142506 43 58 6.1 7.8 0.00 0.00 0.00 100 1009.1
20260506142006 43 60 6.1 10.4 0.00 0.00 0.00 100 1009.1
20260506141505 43 60 7.0 10.4 0.00 0.00 0.00 100 1009.1
20260506141006 43 71 7.8 10.4 0.00 0.00 0.00 100 1009.1
20260506140506 43 93 7.8 10.4 0.00 0.00 0.00 100 1009.0
20260506140005 43 84 7.8 10.4 0.00 0.00 0.00 100 1008.6
20260506135505 43 111 6.1 10.4 0.00 0.00 0.00 100 1009.1
20260506134505 43 89 6.1 12.2 0.00 0.00 0.00 100 1009.1
20260506133506 43 94 7.8 10.4 0.00 0.00 0.00 100 1008.1
20260506133006 43 96 7.8 10.4 0.00 0.00 0.00 100 1009.1
20260506132506 43 103 7.8 10.4 0.00 0.00 0.00 100 1008.1
20260506132006 43 98 6.1 10.4 0.00 0.00 0.00 100 1008.1
20260506131506 43 106 7.0 10.4 0.00 0.00 0.00 100 1008.1
20260506131006 44 100 6.1 7.8 0.00 0.00 0.00 100 1008.1
20260506130506 44 117 6.1 7.8 0.00 0.00 0.00 100 1008.1
20260506130006 44 97 4.3 10.4 0.00 0.00 0.00 100 1008.1
20260506125505 43 114 4.3 10.4 0.00 0.00 0.00 100 1008.1
20260506125006 44 107 6.1 10.4 0.00 0.00 0.00 100 1008.1
20260506124006 44 130 6.1 10.4 0.00 0.00 0.00 100 1008.1